Location: Unspecified
(0.0000°N, 0.0000°E)
Time: 09:59:06
(UTC+02:00)

Iridium 75 - Visible Passes

Search period start: 22 October 2014 00:00
Search period end: 31 October 2014 23:00
Orbit: 776 x 779 km, 86.4° (Epoch: 21 October)

Date Brightness Start Highest point End Pass type
(mag) Time Alt. Az. Time Alt. Az. Time Alt. Az.
22 Oct 6.6 05:37:35 55° E 05:37:37 55° E 05:42:42 10° SSE visible
23 Oct 8.1 05:05:17 23° ESE 05:05:17 23° ESE 05:08:22 10° SE visible
23 Oct 7.5 06:45:49 17° WSW 06:45:49 17° WSW 06:48:04 10° SW visible
24 Oct 7.2 06:13:20 27° SW 06:13:20 27° SW 06:15:59 10° SSW visible
25 Oct 7.6 05:40:42 26° S 05:40:42 26° S 05:42:53 10° S visible
26 Oct 8.4 04:07:59 16° SSE 04:07:59 16° SSE 04:09:04 10° SSE visible
